DELTA 1 DEB, 7185

Orbit data source: Space-Track

DELTA 1 DEB, 7185 is space debris in SSO originally from a launch on Tue, 06 Nov 1973 UTC launched from the Air Force Western Test Range (AFWTR). Debris objects in space refer to the collection of defunct objects orbiting the Earth. Examples of debris include non-operational satellites, rocket bodies, and fragments generated from explosions, collisions, or faulty payload assembly.

Loading next visibility...
Identifier
7185, 1973-086EW
Orbit
SSO
Country
Flag of USUS
Related business
Manufacturer
Unknown
Mission
Spacecraft
Bus & Motor
Unknown
Mass
Unknown
Launch date (UTC)
1973-11-06 (52 years ago)
Launch vehicle
Unknown
Launch site
Air Force Western Test Range (AFWTR)
Object type
Payload
Rocket body
Debris
Shape & HBR
Unknown shape, 0.1 m
Radar Cross Section
Small (<0.1 m²)

Expand to show TLE details & history
Last TLE update: 7 hours ago

TLE from 7 hours ago
0 DELTA 1 DEB
1  7185U 73086EW  25300.39482236  .00000309  00000-0  31404-2 0  9998
2  7185 101.8172  98.0619 0143344   8.7368  47.4966 12.23443415313458
Epoch: 2025-10-27T09:28Z
TLE epoch observation values (Epoch: 2025-10-27T09:28:32.651Z)
Latitude
55.69658°
Longitude
-97.83986°
Altitude
1,510.464 km
Speed
7.149 km/s
True Right ascension
05h 21m 10s
True Declination
55° 33' 06"
Sunlit
Object was in daylight at epoch
Visualization orbit readout
Latitude
Unknown
Longitude
Unknown
Altitude
Unknown
Speed
Unknown
Apparent Right ascension
Unknown
Apparent Declination
Unknown
Sunlit
N/A
Visualization observer readout
Local Sidereal Time
11:50:58
Azimuth
Unknown
Elevation
Unknown
Doppler factor
Unknown
Orbital elements
Apogee altitude
1,689.169 km
Perigee altitude
1,461.158 km
Semi-major axis
7,953.301 km
Eccentricity
0.01433
Inclination
101.8172°
RAAN
98.0619°
Arg. of periapsis
8.7368°
True anomaly
48.72233°
Mean anomaly
47.4966°
Eccentric anomaly
48.10798°
Mean motion
3.06 °/min
Orbital period
117.65 mins
BSTAR
0.0031404
Loading maneuver chart data...
Computing Atmospheric mass density...
Loading historical data...
Loading historical data...
Loading historical data...
Loading historical data...
Loading historical data...
Loading historical data...
Loading historical data...

Documentation

Showing up to 5 results
|